Theta_e
296 297 298 299 299 300 300 308 311 301 310 314 312 313 310 306 307 306 308 309 309 308 309 310 311 310 311 309 306 310 313 315 319 318 318 319 318 320 320 321 323 323 325 325
296 297 297 298 299 300 305 306 306 304 310 317 312 308 307 307 307 306 308 309 307 307 308 309 309 308 307 308 305 308 309 315 318 319 321 320 320 319 321 317 321 323 327 328
296 296 297 298 298 299 304 307 312 306 306 308 310 309 307 306 305 305 306 306 306 306 307 307 308 307 308 305 305 303 308 312 315 318 317 316 319 318 318 321 325 323 322 321
295 296 297 297 298 298 304 305 304 304 308 307 307 306 306 306 305 304 305 307 305 304 306 306 307 307 306 305 304 307 309 310 311 312 314 314 316 319 318 322 320 322 325 322
295 296 296 297 298 298 303 307 305 303 303 304 306 305 306 305 304 304 305 305 304 303 304 305 305 305 305 305 305 306 306 309 310 312 314 316 319 319 318 319 319 321 321 321
295 295 296 296 297 298 301 300 303 305 301 304 306 305 304 303 302 302 302 302 302 304 305 302 301 301 302 303 305 306 307 308 311 314 316 316 321 320 317 319 320 321 322 321
294 295 295 295 296 296 299 301 302 305 304 304 304 302 301 302 301 302 301 301 302 303 299 302 305 306 307 306 307 306 307 308 310 313 316 322 319 316 316 317 316 316 317 317
294 294 295 295 295 295 296 297 301 303 304 302 301 300 301 300 300 301 301 301 300 299 303 306 307 310 313 310 308 306 306 308 311 314 316 317 318 317 315 316 316 315 315 316
294 294 294 294 294 294 294 294 298 302 302 302 299 301 300 302 303 303 301 300 299 302 304 306 306 308 307 310 310 306 305 306 307 311 318 325 318 318 314 314 320 314 314 316
293 293 293 294 294 294 294 293 295 300 301 298 299 301 302 300 302 303 301 299 300 302 305 306 306 306 306 309 308 308 309 306 308 310 314 315 318 317 317 321 321 313 314 315
293 293 293 293 294 294 295 293 293 299 300 298 297 297 300 300 300 303 301 302 302 303 304 304 305 305 305 306 306 308 308 311 312 310 314 319 315 317 319 317 314 312 315 316
294 293 294 294 294 293 295 297 294 295 300 299 297 297 297 297 298 299 300 300 299 300 302 304 303 304 305 305 306 307 310 309 308 309 315 312 311 316 315 314 315 312 314 316
294 294 294 295 294 293 294 297 297 298 300 299 300 299 298 296 297 297 300 299 298 299 300 300 302 302 303 304 306 305 306 305 306 307 313 313 313 314 312 312 314 313 312 315
294 294 295 295 294 293 295 296 296 298 298 303 300 296 299 297 297 297 297 298 298 298 298 299 300 302 301 303 303 303 303 303 306 307 307 312 316 312 311 312 312 312 312 314
294 294 295 295 295 294 296 294 293 294 299 302 301 299 298 298 298 298 298 298 298 298 298 299 301 300 301 302 303 305 304 305 308 310 309 309 310 310 311 314 312 311 312 314
294 294 295 296 295 295 297 298 294 294 295 299 303 299 299 300 299 299 299 299 298 297 297 298 299 300 301 303 305 303 304 304 304 305 306 307 309 312 312 313 311 310 313 313
294 295 295 296 295 295 296 296 294 294 295 297 302 302 300 299 300 301 300 298 298 296 297 298 299 300 301 304 304 303 303 303 305 307 309 310 311 310 311 310 309 311 313 313
294 295 295 295 295 296 297 294 294 294 296 296 300 302 301 300 302 302 300 298 296 297 298 299 300 301 303 304 303 305 304 304 305 308 309 310 310 310 311 310 310 311 311 311
295 295 295 295 297 297 295 294 294 294 295 297 299 303 303 300 301 303 302 301 301 300 300 301 302 305 305 304 303 303 303 303 304 306 310 311 311 311 313 310 310 311 310 311
294 295 297 294 296 294 294 295 296 295 295 296 299 298 302 301 302 302 302 301 301 302 304 302 303 304 302 302 301 301 304 305 308 311 312 312 310 311 312 313 311 310 310 310
295 297 296 296 293 296 296 296 297 297 297 298 299 299 301 301 302 302 302 302 303 303 306 304 305 307 304 302 302 304 307 310 311 311 312 312 311 310 311 314 311 310 310 310
297 297 296 296 296 295 296 299 299 298 301 300 301 301 300 300 300 300 302 303 303 304 304 305 307 305 303 303 303 306 308 311 311 312 312 312 309 309 311 314 313 311 310 310
295 296 295 297 295 297 298 299 300 301 301 301 301 302 302 301 301 301 302 301 303 303 305 306 307 304 303 303 303 306 307 310 312 311 310 309 309 309 310 313 313 310 310 309
297 296 297 298 298 298 299 301 302 301 301 301 301 301 302 302 302 302 303 303 303 304 305 308 305 303 302 303 303 306 306 308 310 311 310 310 310 310 310 310 311 312 311 309
297 297 298 298 298 298 299 299 300 300 300 300 300 301 301 302 303 303 303 303 303 304 305 306 305 303 301 303 303 305 306 306 307 310 310 310 311 312 311 310 310 311 313 313
296 296 298 297 297 298 299 300 300 300 300 300 301 301 302 303 303 303 303 303 302 305 304 305 304 304 301 301 303 305 305 307 306 306 307 309 310 311 311 313 312 311 311 312
296 298 297 297 299 299 299 298 298 299 297 298 298 301 302 302 303 303 303 303 304 303 303 304 304 304 304 303 302 303 304 305 305 306 306 306 307 307 309 310 309 310 311 312
Wind_Speed
7 8 10 10 10 9 7 7 3 17 15 6 7 6 4 5 5 5 5 4 4 7 10 5 5 6 6 13 18 12 5 5 9 17 14 4 7 1 4 1 2 3 3 2
8 8 9 10 11 11 9 5 7 15 10 4 7 10 11 8 3 7 4 4 6 7 6 5 6 6 7 5 16 10 9 3 9 7 5 11 5 6 5 4 1 4 3 1
8 8 9 10 11 10 11 3 3 9 14 13 11 10 5 6 4 6 3 5 2 8 6 1 7 11 4 16 16 10 6 7 4 8 16 10 15 13 12 5 2 3 4 10
7 8 8 9 11 10 10 5 5 3 3 8 8 7 3 5 3 2 3 4 6 8 5 13 2 11 17 15 3 6 6 10 14 14 19 20 20 18 13 6 8 4 3 3
8 8 10 11 9 9 11 4 4 8 8 3 7 2 5 4 4 4 3 4 7 8 9 10 15 16 14 8 8 9 12 8 16 20 18 11 12 17 10 15 13 14 12 12
8 10 10 10 9 7 8 9 12 3 3 3 0 4 4 5 2 2 3 7 10 8 11 19 24 25 23 22 17 17 16 9 10 10 10 13 6 7 5 1 4 11 7 11
10 10 10 12 12 13 11 10 5 4 3 2 5 5 3 3 3 3 5 8 9 11 21 24 20 20 17 9 11 13 10 9 8 9 12 3 5 7 5 6 9 8 3 5
10 11 12 13 13 13 12 10 6 3 4 8 5 3 2 0 1 3 5 4 8 15 16 7 6 2 2 5 4 2 9 7 5 4 7 8 7 13 6 5 13 14 12 6
11 12 12 13 13 12 13 11 10 6 6 5 5 4 2 3 4 1 1 7 9 9 10 4 3 4 5 3 1 6 2 6 3 4 5 2 12 17 8 3 8 18 13 3
12 12 13 13 13 11 13 11 9 6 7 5 2 3 5 3 2 3 2 8 5 5 5 5 4 5 4 4 6 6 1 3 6 6 4 4 19 23 11 7 10 18 15 3
13 14 14 14 13 11 13 11 9 9 4 5 3 3 3 2 2 3 6 5 4 6 4 4 4 4 5 5 9 3 3 4 2 3 4 4 25 19 13 12 13 14 13 5
14 14 15 15 13 12 13 9 9 10 5 4 4 2 1 1 1 1 2 3 0 5 3 3 4 6 5 8 4 1 2 3 5 5 4 14 28 14 19 19 15 12 9 4
13 14 15 13 11 10 11 11 10 7 7 6 3 4 2 1 3 4 3 3 2 1 4 3 3 5 4 5 6 7 2 8 4 9 6 17 26 17 22 22 14 10 6 6
11 12 13 12 11 10 12 10 12 6 3 1 4 1 3 0 2 5 5 1 2 3 5 2 3 6 8 6 10 13 13 9 6 8 19 23 4 27 29 25 18 11 3 9
10 11 12 10 10 9 9 10 15 11 4 3 4 2 2 2 2 3 5 5 4 4 3 5 4 8 8 14 13 10 4 3 3 3 19 19 27 32 28 23 18 9 4 11
11 10 10 8 8 8 5 2 9 11 6 2 2 1 3 1 1 3 3 3 4 3 4 8 9 13 7 4 6 5 3 14 18 20 27 27 28 23 25 17 12 2 9 12
11 9 8 6 7 8 4 2 4 7 6 3 1 6 2 1 1 2 2 3 3 5 4 6 11 15 9 5 12 20 18 20 22 22 23 22 16 24 21 11 5 8 11 13
10 7 5 3 5 12 10 8 7 6 3 3 3 1 5 2 4 4 5 4 4 6 5 6 11 11 6 4 9 17 17 19 25 19 16 16 20 18 11 6 5 10 11 15
10 5 3 6 6 3 1 5 10 5 3 2 1 3 3 2 6 2 2 3 3 4 6 5 5 3 3 7 22 27 28 20 28 26 22 18 14 9 9 5 4 8 10 15
9 6 2 2 2 3 4 5 2 2 1 0 3 2 2 3 4 3 2 4 3 3 3 2 2 2 11 19 24 31 34 29 22 20 17 7 5 7 9 7 3 6 9 13
8 4 2 2 2 4 2 2 1 1 1 4 2 3 6 3 4 4 3 4 2 3 2 3 2 0 20 24 32 34 28 14 13 14 13 13 12 9 6 6 2 6 9 11
7 6 6 3 1 2 1 2 2 2 1 5 1 1 1 2 2 3 4 2 3 4 3 2 2 6 28 31 36 33 22 13 0 11 10 9 6 4 3 2 3 5 7 10
9 3 3 3 1 2 3 4 2 2 5 4 2 0 1 3 2 4 3 2 5 10 1 2 2 19 27 26 37 32 22 16 8 2 5 4 3 2 1 1 3 4 7 8
3 4 3 4 4 5 4 2 7 5 2 2 5 6 2 1 2 3 2 4 4 3 2 3 7 23 24 30 40 30 24 20 17 14 6 3 5 3 2 2 2 3 4 8
3 4 4 6 5 4 4 2 3 3 2 4 3 4 4 3 2 3 3 3 3 3 3 3 8 17 24 28 36 29 24 22 21 17 13 11 8 5 2 1 3 4 4 4
3 5 4 3 8 7 7 6 4 1 0 1 3 3 2 4 3 3 5 3 2 3 5 1 4 6 21 27 31 26 28 22 20 19 19 17 14 12 8 6 5 5 7 8
5 7 10 7 5 9 8 7 6 4 4 1 1 2 5 4 3 3 2 2 4 7 9 8 8 11 10 18 23 23 23 23 20 18 18 17 16 15 15 13 10 7 4 4
Wind_Direction
47 38 30 23 17 19 52 38 58 357 48 46 61 75 96 95 64 48 56 8 4 358 344 332 343 348 5 4 345 335 15 294 287 282 285 310 293 34 123 168 135 247 263 320
49 41 34 29 23 30 74 70 50 18 47 85 89 106 95 74 82 34 21 43 13 354 326 325 328 354 343 342 342 347 333 263 305 282 124 19 8 350 102 122 149 241 275 61
53 44 38 35 29 41 81 75 57 42 54 70 109 116 83 110 63 74 41 22 337 340 332 322 298 302 357 319 320 313 245 278 262 280 299 267 292 299 280 237 221 310 253 289
62 50 40 43 39 41 78 62 66 67 44 62 83 87 95 105 96 61 6 179 24 351 335 318 328 327 318 319 347 272 319 288 285 280 288 292 282 306 297 212 225 241 275 286
70 60 47 42 46 50 77 86 113 93 97 86 97 106 71 69 73 347 76 346 346 322 301 310 308 318 313 303 302 318 322 300 305 286 277 292 297 291 284 251 248 245 265 304
77 63 55 56 55 83 83 80 116 112 172 103 282 48 66 85 349 65 357 345 321 319 344 310 294 285 279 272 290 293 294 275 297 277 343 314 288 287 302 319 197 223 256 235
84 73 65 62 63 82 102 116 95 100 102 66 66 107 89 88 52 331 322 317 312 337 319 308 287 259 249 234 273 268 257 264 269 292 307 229 239 24 40 61 45 20 351 286
91 80 71 68 70 80 90 96 93 83 107 104 123 135 93 100 203 274 322 340 324 320 315 316 340 280 129 173 68 168 234 265 296 277 314 272 2 33 24 17 62 25 13 38
98 83 75 72 74 78 81 90 90 91 127 78 115 132 56 360 355 178 16 329 322 326 293 304 326 313 326 301 40 52 111 260 340 313 298 317 1 352 22 251 56 12 5 24
101 86 79 74 72 73 81 81 95 79 105 119 114 51 37 29 1 290 27 343 333 325 331 313 347 314 317 315 313 336 176 184 244 259 283 269 353 359 326 38 352 350 357 277
106 92 83 76 71 64 82 67 71 98 87 121 107 89 84 85 27 342 3 269 32 349 356 323 357 320 345 289 309 358 301 321 198 233 257 260 360 9 36 348 343 0 13 119
113 96 87 77 67 56 78 51 48 92 96 118 141 145 212 174 252 321 24 45 328 17 309 347 326 316 326 307 295 254 283 359 321 294 319 311 314 9 10 351 339 357 13 127
119 102 92 80 64 50 68 55 42 66 96 104 93 73 58 63 213 208 300 79 10 355 14 334 292 279 297 295 322 310 331 339 261 307 12 309 303 2 358 351 344 336 338 163
126 105 94 81 59 48 70 55 41 65 90 299 113 60 23 85 181 207 218 283 6 357 352 305 277 296 311 294 302 299 291 309 299 282 294 317 325 353 341 339 344 338 316 166
134 110 96 81 56 48 66 62 48 45 66 8 105 112 129 72 193 207 226 240 264 295 293 240 253 275 282 276 264 268 275 258 253 267 306 308 312 321 324 328 333 329 167 153
142 119 102 82 51 35 47 355 16 24 44 26 202 102 137 136 18 213 211 229 241 203 254 271 273 267 274 285 279 327 235 266 266 275 291 295 305 314 326 322 326 321 150 151
152 130 109 81 38 48 76 35 357 29 20 33 256 154 154 209 207 175 195 211 231 220 251 249 272 283 230 265 274 301 300 288 285 288 295 293 318 322 332 342 9 121 141 143
162 146 119 79 59 49 33 8 19 40 33 40 342 48 191 190 255 179 176 199 220 227 246 261 263 278 232 265 341 319 313 301 297 285 302 296 310 320 348 13 96 124 135 143
166 151 113 80 61 69 335 5 31 70 73 6 329 316 31 342 275 314 207 204 249 200 238 257 281 243 234 296 311 306 301 289 285 290 290 293 298 306 360 34 106 135 143 147
158 130 79 71 170 55 58 38 66 44 68 264 278 340 307 331 348 348 283 186 244 265 192 253 241 270 287 283 300 309 309 302 289 271 277 285 310 343 353 13 98 149 153 154
147 151 115 152 106 61 40 36 8 59 279 198 254 323 329 19 329 323 315 309 280 283 71 314 276 258 335 332 329 325 329 313 283 257 255 275 280 293 318 4 73 146 155 157
165 161 131 113 111 49 306 205 125 225 26 151 230 55 249 342 326 287 287 309 301 281 359 270 269 332 339 337 333 347 358 1 262 232 273 271 264 261 286 19 70 139 152 164
133 113 149 146 155 200 226 166 197 202 182 162 235 108 315 186 239 267 269 293 247 320 269 287 309 331 337 343 341 353 11 22 47 275 231 240 277 257 185 77 76 145 168 178
161 165 173 214 174 236 202 241 86 99 192 350 329 321 273 270 250 262 263 266 302 276 276 24 349 355 355 352 352 359 13 26 35 39 27 274 307 295 254 210 138 129 184 196
187 200 222 200 207 172 167 186 200 178 282 288 302 276 252 246 230 239 281 272 272 270 15 22 6 4 1 352 349 360 12 24 34 39 44 43 56 44 316 327 249 224 214 232
220 231 236 196 185 190 195 202 202 182 234 274 274 294 256 232 227 205 215 260 269 30 339 335 333 329 13 358 353 354 4 13 22 29 38 41 43 51 59 243 316 273 256 248
210 231 214 205 208 185 191 203 209 172 269 290 306 271 233 306 256 231 256 287 18 347 337 312 300 325 319 345 340 346 355 5 8 16 24 31 38 41 46 39 36 27 2 291